[[{"header":{"parameterUnit":"m.s-1","parameterCategory":1,"la1":30.2991,"la2":30.254,"lo1":-89.0895,"lo2":-89.0444,"dy":0.0017,"dx":0.0017,"nx":28,"ny":28,"refTime":"2024-09-30T03:00:00:Z","depth":0,"parameterNumber":2,"parameterNumberName":"U-component_of_WINDS"},"data":[0,0,0,0,0,0,0,0,0,0,0,0,0,0,0,0,0,0,0,0,0,0,0,0,0,0,0,0,0,0,0,0,0,0,0,0,0,0,0,0,0,0,0,0,0,0,0,0,0,0,0,0,0,0,0,0,0,0,-1.1335,-1.1335,0,-1.1342,-1.1342,-1.1342,-1.1361,-1.1362,-1.1362,-1.1363,-1.1368,-1.1368,-1.1367,0,0,0,0,0,0,0,0,0,0,0,0,0,-1.1337,-1.1337,-1.1335,-1.1335,-1.1335,-1.1342,-1.1342,-1.1342,-1.1361,-1.1362,-1.1362,-1.1363,-1.1368,-1.1368,-1.1367,0,0,0,0,0,0,0,0,0,0,0,0,0,-1.1339,-1.1337,-1.1335,-1.1346,-1.1347,-1.1342,-1.1342,-1.1342,-1.1361,-1.1362,-1.1362,-1.1363,-1.1368,-1.1368,-1.1367,-1.1352,0,0,-1.1366,-1.1366,0,0,0,0,0,0,0,0,-1.1339,-1.1339,-1.1344,-1.1345,-1.1346,-1.1351,-1.1345,-1.1345,-1.1361,-1.1356,-1.1363,-1.1363,-1.1362,-1.1362,-1.1362,-1.1352,-1.1352,-1.1366,-1.1366,-1.1366,-1.1366,0,0,0,0,0,0,0,-1.1339,-1.1339,-1.1337,-1.1344,-1.1345,-1.135,-1.1351,-1.1345,-1.1355,-1.1356,-1.1358,-1.1358,-1.1362,-1.1362,-1.1362,-1.1353,-1.1366,-1.1366,-1.1366,-1.1365,-1.133,-1.1329,0,0,0,0,0,0,-1.1338,-1.1339,-1.1337,-1.1338,-1.1344,-1.1349,-1.135,-1.1349,-1.1355,-1.1357,-1.1358,-1.1359,-1.1362,-1.1362,-1.1362,-1.1343,-1.1366,-1.1365,-1.1365,-1.133,-1.133,-1.1329,0,0,0,0,0,0,-1.1338,-1.1337,-1.1337,-1.1339,-1.1339,-1.1348,-1.1347,-1.1349,-1.1348,-1.1356,-1.1358,-1.1355,-1.1363,-1.1363,-1.1354,-1.1344,-1.1365,-1.1365,-1.1331,-1.133,-1.1329,-1.1306,0,0,0,0,0,0,-1.1337,-1.1337,-1.1332,-1.1338,-1.1339,-1.1329,-1.1346,-1.1348,-1.1348,-1.135,-1.1355,-1.1356,-1.1363,-1.1355,-1.1354,-1.1344,-1.1364,-1.1332,-1.1331,-1.1329,-1.1308,-1.1305,-1.1302,0,0,0,0,0,-1.1338,-1.1325,-1.1331,-1.1331,-1.1332,-1.1328,-1.1329,-1.1338,-1.1347,-1.1341,-1.1346,-1.1356,-1.1346,-1.1354,-1.1353,-1.1342,-1.1333,-1.1331,-1.133,-1.1309,-1.1305,-1.1302,0,0,0,0,0,0,-1.1316,-1.1326,-1.1333,-1.1322,-1.1324,-1.1332,-1.1325,-1.1333,-1.1333,-1.1334,-1.1346,-1.1347,-1.1336,-1.1339,-1.1348,-1.1327,-1.1341,-1.1339,-1.1326,-1.1322,-1.1319,-1.1317,-1.1364,0,0,0,0,0,-1.131,-1.1307,-1.1315,-1.1305,-1.1306,-1.1315,-1.1314,-1.1321,-1.1323,-1.1324,-1.1329,-1.133,-1.1327,-1.1325,-1.1323,-1.1309,-1.131,-1.1302,-1.1299,-1.1296,-1.1293,-1.1285,-1.1281,-1.1323,-1.1324,-1.1324,0,0,-1.1297,-1.1302,-1.1299,-1.1301,-1.1303,-1.1299,-1.1316,-1.131,-1.1307,-1.1323,-1.1315,-1.1319,-1.1321,-1.1309,-1.1305,-1.1311,-1.1282,-1.1294,-1.1292,-1.1291,-1.1283,-1.1279,-1.1275,-1.1322,-1.1323,-1.1323,0,0,-1.1271,-1.1276,-1.1267,-1.1269,-1.1273,-1.128,-1.1277,-1.1284,-1.1287,-1.1279,-1.1291,-1.1287,-1.1282,-1.1283,-1.1283,-1.1258,-1.1266,-1.1258,-1.124,-1.1232,-1.1228,-1.1225,-1.1215,-1.1211,-1.1256,-1.1256,-1.1256,0,-1.1255,-1.1249,-1.1261,-1.1255,-1.1254,-1.127,-1.1261,-1.1263,-1.1265,-1.1264,-1.1273,-1.1266,-1.1269,-1.1257,-1.1251,-1.1252,-1.1248,-1.1256,-1.1228,-1.1225,-1.1223,-1.1212,-1.1209,-1.1254,-1.1254,-1.1255,-1.1255,0,-1.1228,-1.1224,-1.1216,-1.1218,-1.1218,-1.121,-1.122,-1.1218,-1.1226,-1.1231,-1.1222,-1.1227,-1.1225,-1.1224,-1.1231,-1.1212,-1.1216,-1.1226,-1.1239,-1.1217,-1.1207,-1.1204,-1.1252,-1.1253,-1.1253,-1.1254,0,0,-1.1186,-1.1196,-1.1193,-1.1194,-1.12,-1.1197,-1.119,-1.1189,-1.1186,-1.1188,-1.1181,-1.1177,-1.1186,-1.1186,-1.1194,-1.1187,-1.1165,-1.1197,-1.1197,-1.1189,-1.1143,-1.1133,-1.1129,-1.1171,-1.1171,-1.117,-1.1142,0,-1.116,-1.1149,-1.116,-1.1146,-1.1141,-1.1157,-1.115,-1.1153,-1.1158,-1.1155,-1.1161,-1.1157,-1.117,-1.117,-1.1164,-1.1169,-1.1155,-1.1171,-1.1163,-1.1163,-1.116,-1.1124,-1.1114,-1.1087,-1.1138,-1.1138,-1.1137,0,-1.1128,-1.1128,-1.1114,-1.112,-1.1119,-1.1113,-1.1113,-1.111,-1.1113,-1.1117,-1.1118,-1.1127,-1.112,-1.1135,-1.1124,-1.1135,-1.1133,-1.1135,-1.1134,-1.1131,-1.1147,-1.1119,-1.1079,-1.1074,-1.1132,-1.1133,-1.1133,0,-1.1096,-1.1094,-1.1085,-1.1085,-1.1093,-1.1088,-1.1091,-1.1095,-1.1094,-1.1094,-1.1093,-1.1092,-1.1091,-1.109,-1.1099,-1.1109,-1.1086,-1.1102,-1.1088,-1.1087,-1.108,-1.108,-1.1037,-1.1083,-1.1083,-1.1083,-1.1083,0,-1.1065,-1.1055,-1.107,-1.1064,-1.1053,-1.1067,-1.1055,-1.106,-1.1063,-1.1058,-1.1072,-1.1066,-1.108,-1.1075,-1.1083,-1.1072,-1.1072,-1.1074,-1.1075,-1.1071,-1.107,-1.1068,-1.1069,-1.1082,-1.1082,-1.1083,-1.1083,0,-1.1027,-1.1037,-1.1028,-1.1036,-1.1038,-1.103,-1.1037,-1.1031,-1.1038,-1.1031,-1.103,-1.104,-1.1036,-1.1045,-1.1042,-1.1047,-1.1031,-1.1037,-1.1029,-1.103,-1.1014,-1.1015,-1.0966,-1.096,-1.1012,-1.1012,-1.1011,0,-1.1004,-1.0997,-1.1005,-1.1003,-1.1005,-1.1001,-1.1,-1.1013,-1.1011,-1.1014,-1.1008,-1.1005,-1.1003,-1.0995,-1.1002,-1.0999,-1.1003,-1.0987,-1.1003,-1.0998,-1.1,-1.0999,-1.0998,-1.0982,-1.0982,-1.0981,-1.0981,0,-1.0963,-1.0969,-1.0967,-1.0966,-1.0965,-1.0965,-1.0966,-1.0963,-1.0977,-1.0974,-1.097,-1.0969,-1.0966,-1.0962,-1.0961,-1.0964,-1.0973,-1.0976,-1.0972,-1.0966,-1.0961,-1.0961,-1.1017,-1.0977,-1.0977,-1.0977,-1.0978,-1.0978,-1.093,-1.0924,-1.0929,-1.0926,-1.0928,-1.0929,-1.0924,-1.0931,-1.0928,-1.0926,-1.0935,-1.0928,-1.0932,-1.0932,-1.0933,-1.0928,-1.0935,-1.093,-1.0928,-1.0926,-1.0923,-1.0965,-1.0928,-1.0928,-1.0929,-1.0929,-1.0929,0,-1.0887,-1.0892,-1.0889,-1.089,-1.0888,-1.09,-1.0902,-1.0899,-1.0893,-1.0896,-1.0894,-1.0889,-1.0885,-1.0892,-1.089,-1.0884,-1.0888,-1.0883,-1.0882,-1.0881,-1.0917,-1.092,-1.0879,-1.0879,-1.0879,-1.0879,-1.0879,-1.0879,-1.0865,-1.0854,-1.0861,-1.0851,-1.0856,-1.085,-1.085,-1.085,-1.0852,-1.0846,-1.0844,-1.0849,-1.0853,-1.085,-1.0847,-1.0849,-1.0847,-1.0839,-1.0842,-1.0875,-1.0879,-1.0884,-1.0886,-1.0839,-1.0838,-1.0806,-1.0806,-1.0806]},{"header":{"parameterUnit":"m.s-1","parameterCategory":1,"la1":30.2991,"la2":30.254,"lo1":-89.0895,"lo2":-89.0444,"dy":0.0017,"dx":0.0017,"nx":28,"ny":28,"refTime":"2024-09-30T03:00:00:Z","depth":0,"parameterNumber":3,"parameterNumberName":"V-component_of_WINDS"},"data":[0,0,0,0,0,0,0,0,0,0,0,0,0,0,0,0,0,0,0,0,0,0,0,0,0,0,0,0,0,0,0,0,0,0,0,0,0,0,0,0,0,0,0,0,0,0,0,0,0,0,0,0,0,0,0,0,0,0,0.8021,0.802,0,0.8011,0.8011,0.801,0.8011,0.8011,0.8011,0.8011,0.8,0.8,0.7999,0,0,0,0,0,0,0,0,0,0,0,0,0,0.804,0.8039,0.8021,0.802,0.802,0.8011,0.801,0.801,0.8011,0.8011,0.8011,0.8011,0.8,0.8,0.7999,0,0,0,0,0,0,0,0,0,0,0,0,0,0.8031,0.8039,0.8021,0.8019,0.8019,0.8011,0.801,0.801,0.8011,0.8011,0.8011,0.8011,0.8,0.8,0.7999,0.7991,0,0,0.7997,0.7997,0,0,0,0,0,0,0,0,0.8031,0.803,0.802,0.8019,0.8019,0.8012,0.8013,0.8004,0.8011,0.8014,0.8011,0.8011,0.8004,0.8003,0.8001,0.7991,0.799,0.7997,0.7997,0.7996,0.7996,0,0,0,0,0,0,0,0.8032,0.803,0.8017,0.802,0.8019,0.8019,0.8018,0.8011,0.8008,0.8014,0.8014,0.8012,0.8004,0.8001,0.8,0.799,0.7997,0.7997,0.7996,0.7996,0.7973,0.7973,0,0,0,0,0,0,0.8033,0.8031,0.8017,0.8016,0.8026,0.8019,0.8017,0.8014,0.8008,0.8007,0.8012,0.8012,0.8002,0.8001,0.8,0.799,0.7997,0.7996,0.7996,0.7973,0.7973,0.7973,0,0,0,0,0,0,0.8033,0.8031,0.8017,0.8024,0.8022,0.8018,0.8014,0.8014,0.8011,0.8007,0.8006,0.801,0.8002,0.8001,0.7993,0.799,0.7996,0.7995,0.7974,0.7973,0.7973,0.7971,0,0,0,0,0,0,0.8034,0.8032,0.8029,0.8024,0.8021,0.8011,0.8014,0.8013,0.801,0.801,0.8005,0.8004,0.8002,0.7994,0.7993,0.7989,0.7995,0.7974,0.7974,0.7973,0.7971,0.7971,0.797,0,0,0,0,0,0.8034,0.8028,0.8028,0.8027,0.8018,0.8011,0.801,0.8008,0.801,0.8007,0.8004,0.8004,0.7991,0.7994,0.7992,0.7988,0.7974,0.7974,0.7973,0.7972,0.7971,0.797,0,0,0,0,0,0,0.8032,0.8027,0.8028,0.802,0.8016,0.8011,0.8007,0.8007,0.8002,0.8003,0.8,0.7999,0.7992,0.7989,0.7993,0.798,0.7983,0.7982,0.7982,0.7981,0.798,0.7981,0.7994,0,0,0,0,0,0.8031,0.8026,0.8022,0.8015,0.8013,0.801,0.8007,0.8007,0.8002,0.8001,0.7997,0.7993,0.7988,0.7984,0.7979,0.7971,0.797,0.7968,0.7967,0.7966,0.7966,0.7961,0.796,0.7971,0.7971,0.7971,0,0,0.8028,0.8025,0.8022,0.8015,0.8012,0.8007,0.8009,0.8003,0.8,0.8,0.7993,0.799,0.7985,0.7977,0.7974,0.7975,0.7962,0.7966,0.7965,0.7965,0.7961,0.796,0.7959,0.7971,0.7971,0.7971,0,0,0.802,0.8017,0.8011,0.8008,0.8004,0.8002,0.8001,0.7996,0.7994,0.7987,0.7987,0.7983,0.7974,0.7971,0.7968,0.7959,0.7959,0.7958,0.7954,0.795,0.7949,0.7948,0.7945,0.7944,0.7957,0.7957,0.7957,0,0.8017,0.8009,0.8008,0.8003,0.8,0.8,0.7994,0.7991,0.7985,0.7983,0.7985,0.7974,0.7971,0.7962,0.796,0.7958,0.7956,0.7958,0.7949,0.7948,0.7948,0.7945,0.7944,0.7957,0.7957,0.7957,0.7957,0,0.8006,0.8001,0.7996,0.7991,0.7988,0.7982,0.798,0.7977,0.7976,0.7975,0.7968,0.7964,0.7958,0.7956,0.7955,0.7948,0.7949,0.795,0.7952,0.7947,0.7944,0.7943,0.7957,0.7957,0.7957,0.7957,0,0,0.7995,0.799,0.7989,0.7986,0.7982,0.7978,0.7972,0.7967,0.7964,0.796,0.7956,0.7948,0.795,0.7946,0.7946,0.7942,0.7936,0.7944,0.7943,0.7942,0.7927,0.7926,0.7925,0.7936,0.7936,0.7936,0.7928,0,0.7987,0.7978,0.7977,0.7968,0.7964,0.7964,0.796,0.7956,0.7954,0.795,0.7948,0.7943,0.7945,0.7943,0.794,0.7937,0.7933,0.7938,0.7932,0.7931,0.7933,0.7924,0.7923,0.7916,0.7927,0.7927,0.7926,0,0.7976,0.7972,0.7963,0.796,0.7958,0.7953,0.7949,0.7945,0.7941,0.794,0.7937,0.7937,0.7931,0.7934,0.7927,0.793,0.7928,0.7926,0.7926,0.7925,0.7928,0.7923,0.7913,0.7912,0.7925,0.7925,0.7925,0,0.7969,0.7962,0.7956,0.7954,0.795,0.7947,0.7945,0.7941,0.7938,0.7935,0.7933,0.7928,0.7925,0.7922,0.792,0.7923,0.7913,0.7916,0.7912,0.7912,0.791,0.791,0.7899,0.7908,0.7908,0.7908,0.7908,0,0.796,0.7955,0.7953,0.7949,0.7943,0.7942,0.7937,0.7935,0.7932,0.7928,0.7928,0.7924,0.7922,0.7918,0.7917,0.7911,0.791,0.7909,0.7909,0.7909,0.7909,0.7907,0.7907,0.7908,0.7908,0.7908,0.7908,0,0.7952,0.795,0.7944,0.7941,0.794,0.7935,0.7933,0.7929,0.7928,0.7922,0.7921,0.7919,0.7914,0.7912,0.7906,0.7906,0.7899,0.7899,0.79,0.79,0.7896,0.7897,0.7884,0.7883,0.7892,0.7892,0.7892,0,0.7946,0.7942,0.7938,0.7936,0.7934,0.7929,0.7927,0.7926,0.7923,0.7919,0.7916,0.7911,0.7907,0.79,0.7897,0.7893,0.7893,0.7889,0.7892,0.7893,0.7893,0.7893,0.7893,0.7888,0.7888,0.7888,0.7888,0,0.7935,0.7935,0.7931,0.7927,0.7924,0.7921,0.7918,0.7916,0.7915,0.7911,0.7907,0.7904,0.7898,0.7893,0.7889,0.7887,0.7887,0.7887,0.7886,0.7886,0.7887,0.7887,0.7898,0.7887,0.7887,0.7887,0.7887,0.7887,0.7928,0.7925,0.7922,0.7918,0.7915,0.7913,0.7909,0.7908,0.7904,0.7899,0.7899,0.7894,0.7891,0.7885,0.7883,0.7879,0.788,0.7878,0.7878,0.7878,0.7877,0.7888,0.7878,0.7878,0.7878,0.7878,0.7878,0,0.7918,0.7916,0.7912,0.7908,0.7905,0.7906,0.7903,0.79,0.7896,0.7893,0.789,0.7884,0.788,0.7878,0.7874,0.7871,0.7871,0.787,0.787,0.7869,0.7877,0.7878,0.787,0.787,0.787,0.787,0.787,0.787,0.7912,0.7906,0.7906,0.7899,0.7898,0.7893,0.7891,0.7889,0.7886,0.7881,0.7877,0.7876,0.7873,0.7869,0.7865,0.7865,0.7863,0.7862,0.7861,0.7868,0.7869,0.787,0.7871,0.7862,0.7862,0.7855,0.7855,0.7855]}]]